{"data":{"norad_id":38857,"epoch":"2026-05-23T06:03:23.148000Z","epoch_age_seconds":236333,"freshness":"STALE","line1":"1 38857U 12055A   26143.25235125  .00000021  00000+0  00000+0 0  9996","line2":"2 38857  55.7947 102.2291 0005482 300.3208  59.5856  1.70473380 84588","mean_motion":1.7047338,"eccentricity":0.0005482,"inclination_deg":55.7947,"raan_deg":102.2291,"arg_perigee_deg":300.3208,"mean_anomaly_deg":59.5856,"bstar":0,"rev_number":8458,"period_min":844.70666329253,"perigee_km":23206.027892279,"apogee_km":23238.481761878,"semimajor_km":29600.391827078,"source":"CELESTRAK","updated_at":"2026-05-25T13:38:24.052028Z"}}